Hourly Data Report for June 14, 2012

All times are specified in Local Standard Time (LST). Add 1 hour to adjust for Daylight Saving Time where and when it is observed.

SAINT JOHN A
NEW BRUNSWICK

45°18'58.000" N
65°53'24.000" W
108.80 m
8104901
71609
YSJ

Download Data

Hourly Data (June 2012)
Hourly Data Report for June 14, 2012
Temp Definition
°C
Dew Point Temp Definition
°C
Rel Hum Definition
%
Wind Dir Definition
10's deg

Wind Spd Definition
km/h
Visibility Definition
km
Stn Press Definition
kPa
Hmdx Definition


Wind Chill Definition


Weather Definition


TIME
00:00 12.6 12.3 98 27 8 4.8 100.56     Rain,Fog
01:00 13.1 12.8 98   0 4.8 100.57     Rain,Fog
02:00 13.6 13.1 97 22 5 4.8 100.57     Rain,Fog
03:00 12.8 12.7 99 20 8 2.4 100.59     Rain,Fog
04:00 12.5 12.5 100   0 2.4 100.63     Rain,Fog
05:00 14.3 14.2 99 35 17 4.8 100.65     Rain,Fog
06:00 15.1 14.6 97 35 17 10.0 100.71     LegendNANA
07:00 15.2 14.6 96 35 17 10.0 100.77     LegendNANA
08:00 15.7 14.4 92 35 20 10.0 100.80     Cloudy
09:00 16.6 14.8 89 34 18 10.0 100.82     LegendNANA
10:00 16.7 13.8 83 34 18 10.0 100.87     LegendNANA
11:00 18.2 14.7 80 1 13 10.0 100.90     Mostly Cloudy
12:00 19.3 14.0 71 1 14 10.0 100.89     LegendNANA
13:00 20.4 13.9 66 3 16 10.0 100.89     LegendNANA
14:00 21.8 14.1 61 4 14 10.0 100.88 25   Mostly Cloudy
15:00 22.0 12.1 53 2 18 10.0 100.88     LegendNANA
16:00 23.9 11.4 45 36 17 10.0 100.86 26   LegendNANA
17:00 18.7 14.2 75 11 16 10.0 100.90     Mostly Cloudy
18:00 18.6 13.9 74 9 22 10.0 100.93     LegendNANA
19:00 16.2 13.0 81 11 21 10.0 101.00     LegendNANA
20:00 14.3 12.4 88 9 13 10.0 101.08     Mostly Cloudy
21:00 13.3 12.2 93   0 10.0 101.17     LegendNANA
22:00 10.5 10.2 98   0 10.0 101.20     LegendNANA
23:00 9.9 9.3 96   0 10.0 101.20     Fog

Notes on Data Quality.

Legend

  • E = Estimated
  • M = Missing
  • NA = Not Available
Date modified: